Theta_e
335 335 334 335 336 335 333 333 332 332 331 331 328 327 328 330 332 335 335 335 335 334 333 332 332 330 331 331 328 326 324 323 323 324 325 325 326 325 326 327 326 325 326 327 326 326 325 325 325 325 323 322 321 320 318 317 316 316 316 314 313 313 313 315 315 316 317 318 318 317 317 316 317 318 319 319 320 321 320 319 319 319 319 320 320
334 335 334 334 336 335 333 333 332 332 331 331 331 329 329 330 332 335 336 335 336 335 334 333 332 330 330 331 329 327 326 324 323 323 324 325 325 325 327 327 325 326 327 327 327 327 326 325 325 325 323 321 320 317 314 314 315 315 317 318 319 319 320 321 321 322 322 321 320 319 318 317 315 316 318 319 320 320 320 320 320 319 319 320 320
333 335 334 333 335 335 334 334 333 332 332 331 331 330 330 330 332 335 335 333 333 334 336 335 332 330 330 330 329 328 327 325 323 323 323 325 325 324 325 326 326 327 327 327 327 327 326 324 324 323 322 321 320 318 318 319 320 320 321 323 324 324 324 324 324 324 324 324 323 321 321 320 318 315 315 317 318 319 320 320 320 320 320 319 319
332 334 333 332 334 334 333 333 333 332 332 331 330 330 330 331 332 333 332 331 330 332 335 336 333 331 330 330 329 328 327 325 323 321 322 323 322 323 324 327 327 327 327 327 327 325 324 323 322 322 321 321 321 322 324 324 324 324 325 326 325 326 326 326 325 325 325 324 324 322 320 321 321 318 315 315 316 317 319 320 320 320 320 319 319
333 333 333 333 333 334 332 332 332 332 332 332 331 331 330 331 332 331 330 330 331 331 334 336 334 332 331 330 329 329 328 326 322 320 320 320 321 324 326 327 327 327 328 327 326 324 323 322 323 324 323 323 324 326 326 326 326 325 326 327 327 327 327 327 327 326 326 325 325 324 322 322 322 320 318 317 315 315 316 317 318 319 319 319 319
334 334 334 333 333 334 333 331 331 331 331 331 331 331 330 330 330 330 330 331 331 330 333 335 334 333 331 330 330 329 328 326 322 318 318 320 322 325 326 326 326 326 326 325 325 324 323 324 326 326 325 325 327 328 327 327 327 326 327 327 327 328 328 327 327 327 327 326 325 325 324 324 323 321 320 318 317 316 316 316 317 317 318 318 318
335 335 334 334 333 333 333 330 330 330 330 330 331 330 330 330 330 331 331 332 332 331 333 335 334 333 332 331 330 329 329 326 321 318 319 322 325 327 325 324 325 326 326 325 326 326 325 326 327 327 326 326 328 329 328 328 328 327 328 328 328 328 327 327 326 326 326 326 326 326 325 325 324 323 322 321 319 318 317 316 316 316 316 317 318
336 335 335 334 333 333 332 331 331 330 331 331 331 331 331 332 332 332 332 332 332 332 333 334 333 333 332 331 331 330 329 326 321 318 321 325 327 327 324 323 327 328 328 328 327 326 326 326 325 326 327 327 328 329 329 329 329 328 328 328 328 327 326 326 325 324 324 325 325 326 326 325 325 324 323 322 321 319 317 315 315 317 317 317 318
335 334 335 334 334 333 332 332 332 332 332 332 332 333 333 333 333 332 332 332 333 333 333 333 333 332 332 332 331 330 329 327 322 320 323 327 327 326 324 323 327 329 328 328 327 326 326 326 325 326 326 327 328 328 329 329 328 329 329 329 328 326 326 325 324 323 324 325 325 325 325 325 325 324 323 322 322 321 319 316 314 316 317 318 319
334 334 334 335 334 333 333 333 333 333 333 333 332 333 333 333 333 332 332 331 333 334 333 333 332 331 331 331 332 331 330 327 322 321 325 327 327 325 323 324 327 328 328 327 327 327 327 327 327 327 327 327 328 328 328 328 328 328 329 329 328 326 326 325 323 322 323 324 323 324 324 324 325 324 324 323 322 321 320 316 313 315 318 319 320
334 334 334 335 335 334 334 333 333 334 333 333 333 333 333 333 333 332 332 332 332 333 332 332 330 330 330 330 331 330 330 327 322 323 325 327 327 325 323 325 327 327 327 327 327 327 327 327 327 328 328 328 328 328 328 328 328 328 328 329 328 327 326 325 323 321 320 322 322 322 323 324 324 324 324 323 322 322 317 313 312 317 320 320 321
334 334 334 335 334 334 334 334 334 334 334 333 333 333 333 333 333 332 332 332 331 331 331 331 329 328 328 329 329 329 330 328 325 324 325 326 327 326 325 326 327 328 328 327 327 327 327 327 326 326 327 328 328 328 328 329 328 328 328 328 328 327 325 323 322 318 317 320 320 319 318 321 324 325 324 323 323 321 315 314 318 320 321 321 322
335 335 335 335 334 335 335 334 334 334 334 334 334 334 334 333 333 333 333 332 330 330 330 330 329 328 329 329 329 330 330 330 328 326 325 326 327 328 326 327 328 328 328 327 326 327 327 325 324 325 326 327 328 328 329 329 328 328 328 328 328 326 322 321 316 310 312 315 316 317 314 316 322 324 324 324 321 317 316 319 321 321 322 322 322
334 335 335 335 335 335 335 334 334 334 334 334 334 334 334 333 333 332 332 331 330 329 329 329 328 329 330 330 330 330 330 329 329 329 328 328 328 328 327 328 328 328 328 326 326 327 325 322 322 323 326 327 328 328 328 328 328 328 327 327 327 323 319 316 308 307 316 318 319 322 318 314 321 325 324 322 317 315 319 322 322 322 322 322 321
334 335 335 335 334 334 335 334 334 335 335 334 334 334 334 333 333 333 331 331 330 329 329 329 329 329 329 330 330 330 329 328 328 328 328 328 329 328 327 328 328 327 327 326 326 326 322 321 323 324 326 328 328 328 328 328 327 327 327 325 321 319 316 309 305 313 321 322 323 324 319 317 322 325 323 319 317 319 322 322 322 322 321 321 321
334 334 334 334 334 333 334 334 334 335 335 335 335 334 334 332 332 333 331 330 329 329 330 329 329 329 328 329 329 329 328 328 328 328 328 328 328 328 327 328 327 326 326 326 327 325 322 324 325 325 327 328 328 328 328 328 327 326 325 319 313 314 311 304 310 320 323 323 324 323 321 322 324 324 321 319 321 323 323 321 321 321 321 321 320
335 334 333 333 333 333 333 334 334 335 336 335 334 335 335 333 332 332 332 331 330 329 330 330 329 328 328 328 328 328 328 328 328 327 327 327 328 327 327 328 327 327 327 326 327 325 323 327 326 326 327 328 328 328 327 327 326 323 318 311 308 308 305 303 314 322 322 323 325 324 324 324 324 322 321 322 323 322 321 321 320 319 318 316 313
335 335 334 333 333 332 332 334 335 335 335 335 335 335 335 333 332 332 332 331 330 329 329 330 329 328 327 327 326 326 327 328 328 327 327 327 327 327 327 328 328 328 327 327 328 325 325 327 326 326 327 327 327 327 327 325 322 317 310 305 304 305 303 306 317 322 322 323 324 324 324 323 322 322 322 322 321 319 319 317 314 311 309 306 305
335 335 334 333 332 331 332 333 334 335 335 335 335 335 335 334 333 332 332 331 330 329 329 329 329 327 326 325 325 325 325 327 327 327 328 328 327 327 328 328 327 327 327 328 328 325 325 327 327 326 327 327 327 326 324 320 314 309 305 303 303 304 303 308 318 322 322 322 322 323 323 322 322 322 322 322 319 318 315 310 306 303 302 301 300
335 335 335 334 333 332 332 332 334 335 335 335 336 335 335 334 333 331 331 331 330 329 329 329 328 327 327 326 327 327 326 326 326 326 326 327 328 328 328 328 327 326 327 327 328 326 325 326 327 326 326 326 326 323 319 313 307 303 303 303 303 304 303 307 317 322 322 323 322 322 322 322 322 322 321 320 318 316 309 303 301 300 300 299 299
335 335 334 334 333 333 332 332 333 334 335 335 336 335 335 335 333 332 331 331 330 329 329 329 328 328 327 326 328 327 326 327 326 324 324 326 328 327 327 327 327 327 327 327 327 326 325 326 327 326 326 326 324 320 316 310 305 301 302 303 303 304 303 305 314 319 321 322 322 322 322 322 321 321 320 319 317 311 303 300 300 299 298 298 298
335 334 333 332 333 333 333 333 334 334 334 334 335 335 335 335 334 333 333 332 331 329 329 329 329 329 328 327 328 327 326 326 325 324 324 325 327 327 326 326 326 327 327 327 327 326 326 326 326 327 326 325 323 319 313 307 303 301 303 305 305 306 305 305 310 315 316 317 319 319 319 319 319 319 319 318 313 304 299 299 299 298 298 297 297
334 334 334 333 332 333 333 333 334 333 332 333 333 334 334 335 334 333 332 331 331 330 329 329 329 329 329 328 328 327 327 326 326 325 324 324 325 326 326 326 326 326 326 326 326 326 326 326 326 327 326 325 322 319 313 304 301 302 303 305 307 308 307 305 306 310 310 312 316 318 318 317 317 318 318 313 305 299 299 299 298 298 298 297 297
333 333 334 334 333 333 333 334 334 333 333 332 333 333 334 334 334 333 332 331 331 331 330 329 329 330 329 328 328 328 328 328 327 326 325 324 324 325 325 325 325 326 326 326 326 325 325 325 326 326 326 324 322 322 318 308 302 303 304 305 306 307 306 304 302 304 305 307 311 315 316 316 315 314 310 303 300 301 303 301 299 298 298 298 297
332 332 333 333 333 333 334 334 333 334 333 332 333 334 334 335 334 334 333 332 332 331 330 330 330 330 330 329 328 328 329 328 328 326 325 324 324 325 325 325 325 324 325 326 326 325 325 325 325 326 326 325 323 323 323 315 304 303 304 303 303 304 303 302 301 300 301 302 304 308 310 311 310 309 306 304 305 307 305 302 299 298 298 298 298
331 332 333 333 333 333 333 333 332 333 333 333 333 333 334 335 333 332 332 333 332 332 331 331 331 330 330 330 330 329 329 329 328 327 326 324 324 324 325 324 324 323 323 325 326 325 325 325 325 325 326 326 324 323 323 319 309 303 303 302 302 302 301 301 300 300 300 300 301 304 307 308 311 311 310 308 306 304 302 300 298 299 298 298 298
330 331 332 333 333 333 333 333 333 333 334 333 332 332 332 333 333 332 332 333 333 332 331 331 331 331 330 330 330 330 329 329 328 327 326 325 324 324 324 323 323 320 320 323 324 325 325 325 324 325 325 325 325 323 322 321 314 305 302 302 302 302 301 300 300 299 300 301 301 303 304 305 308 309 306 304 302 300 299 299 299 299 298 298 298
330 331 331 331 332 332 333 333 333 334 334 332 330 329 331 333 333 332 332 333 333 332 332 332 331 331 331 331 331 330 330 329 328 327 327 326 325 324 323 323 323 321 319 320 321 322 325 325 324 324 325 325 325 323 321 319 315 306 302 302 302 302 301 300 299 299 300 300 300 301 300 301 302 302 301 300 300 299 299 299 299 299 298 298 298
331 331 331 331 331 332 333 333 332 333 333 332 329 329 331 332 332 333 332 333 333 332 332 332 332 331 331 331 331 331 330 330 329 327 327 326 325 325 324 323 324 322 321 321 320 320 322 324 324 324 324 324 324 323 319 315 312 306 302 302 302 302 301 300 300 300 300 300 300 300 300 300 300 300 300 300 299 299 299 299 299 299 299 299 299
331 331 331 331 331 331 332 332 332 333 333 332 331 331 331 332 331 331 332 332 332 332 332 332 332 331 331 331 331 331 331 330 329 328 327 327 326 325 324 323 323 323 322 322 322 320 320 323 324 324 324 323 323 322 318 313 308 304 302 302 302 302 301 300 300 300 300 300 300 300 300 300 300 300 300 300 300 300 299 299 299 300 300 300 301
331 331 330 330 330 331 332 332 332 332 332 331 332 331 332 332 331 329 331 332 332 331 332 332 332 331 330 330 330 330 330 330 329 329 328 328 327 326 325 324 324 323 321 322 323 321 319 322 324 324 324 322 322 321 317 313 307 303 302 302 302 302 301 300 301 302 301 301 300 300 300 300 300 300 300 300 300 300 300 301 302 303 303 304 305
331 332 331 330 330 330 331 331 331 331 331 330 331 331 332 332 330 330 332 333 331 331 332 332 332 331 331 330 330 330 330 329 329 329 329 329 328 327 326 325 324 323 321 320 321 319 317 320 322 323 323 321 320 319 317 313 308 303 302 302 302 302 301 300 302 303 303 302 301 301 301 301 302 302 302 303 303 304 304 305 306 307 307 307 308
331 332 332 330 330 330 330 330 331 331 330 330 331 332 332 331 329 330 332 332 331 332 332 332 332 331 331 330 330 330 330 329 329 329 329 329 328 327 326 325 324 323 321 320 319 316 314 316 317 317 320 319 317 316 316 314 310 305 302 302 302 302 302 301 302 304 305 305 304 304 304 305 305 306 307 307 308 308 308 308 309 309 309 309 308
331 332 332 331 330 329 329 330 330 330 330 330 331 331 330 329 329 330 331 331 331 332 332 332 332 331 331 330 330 330 329 329 329 330 330 329 328 328 327 326 325 324 321 320 319 317 314 313 314 314 315 316 315 314 314 313 312 307 304 302 302 303 302 301 302 304 306 306 307 307 307 308 309 309 310 310 310 310 309 309 309 309 309 309 308
331 332 331 330 330 329 330 330 330 329 330 329 330 330 330 329 329 330 332 331 331 332 332 332 331 331 331 330 330 330 329 329 330 330 330 329 329 329 328 327 327 325 323 321 320 319 316 314 313 312 313 313 313 313 313 312 312 309 306 303 303 303 303 302 302 303 306 307 308 308 309 309 309 310 310 309 309 309 309 309 309 309 309 308 308
330 330 330 330 330 329 330 330 330 330 330 329 329 330 331 330 329 329 331 332 332 332 332 331 331 330 330 330 330 330 330 330 330 330 330 329 329 329 328 328 327 325 324 322 321 320 319 315 313 312 312 313 312 312 312 311 311 310 307 304 303 303 303 303 302 302 304 306 307 308 308 309 309 309 309 309 309 309 309 308 308 308 308 308 308
330 329 329 329 330 329 330 330 330 330 330 329 330 330 330 330 329 329 331 332 332 332 331 331 331 330 330 330 331 331 331 330 330 330 330 329 328 328 328 328 327 325 324 323 322 321 319 316 314 312 311 311 311 311 311 310 310 310 308 305 303 303 303 303 303 302 303 305 306 307 308 308 308 308 309 309 309 308 308 308 308 308 308 308 307
330 329 328 329 329 329 330 330 330 330 330 330 331 331 330 330 329 330 331 332 331 331 331 331 330 330 330 330 331 331 331 331 331 330 329 329 328 328 328 328 327 326 324 323 322 321 319 317 316 314 312 311 310 310 310 310 310 310 309 306 304 303 303 303 304 303 303 303 304 305 306 307 307 308 308 308 308 308 308 308 307 308 307 307 307
330 329 328 328 329 330 330 330 330 330 330 330 330 330 330 330 330 330 331 331 331 331 331 331 331 330 330 330 331 331 331 330 330 330 329 329 329 328 328 328 327 325 324 323 322 321 318 316 315 314 312 311 310 309 309 309 309 308 308 306 305 305 304 304 304 304 304 304 304 304 304 305 306 306 306 307 307 307 307 307 307 308 308 308 307
330 329 328 328 329 329 330 330 330 330 329 329 329 330 330 331 331 331 331 331 330 330 330 331 331 331 330 330 330 330 330 330 330 329 329 329 329 328 327 327 326 325 325 324 323 323 320 317 314 313 311 310 309 309 308 308 307 307 307 307 307 307 306 305 305 305 304 305 305 304 304 304 305 305 305 306 307 307 307 308 309 309 309 309 309
329 328 327 328 328 329 329 329 328 328 328 328 329 330 330 331 331 330 330 330 329 329 330 330 330 330 330 330 329 329 328 329 329 329 329 329 328 328 328 327 326 326 325 324 323 323 322 319 315 311 310 309 308 308 308 308 308 308 307 307 308 309 308 307 307 306 305 305 305 306 306 306 306 307 307 308 309 309 309 310 310 310 311 311 311
327 326 326 327 328 329 328 327 327 327 328 328 329 329 329 329 330 329 328 328 328 328 329 329 328 328 328 328 328 327 327 327 328 328 329 328 327 327 328 328 327 327 325 324 323 322 322 322 317 310 308 309 308 308 308 308 308 308 308 308 309 309 307 307 308 308 307 307 306 307 309 309 309 309 310 310 311 311 311 311 311 311 311 311 311
325 325 325 326 327 327 326 326 326 327 327 328 328 327 327 328 328 327 326 325 326 327 327 327 326 326 326 326 326 326 327 327 327 327 328 328 327 327 327 327 326 326 325 324 323 322 322 322 317 312 310 310 309 309 308 308 308 308 308 308 308 308 307 306 307 309 309 309 309 309 310 310 310 310 311 313 313 313 313 313 313 313 313 312 312
323 323 324 325 325 325 325 325 326 327 327 327 327 326 326 326 326 325 324 324 325 325 325 325 324 324 324 325 325 326 326 327 327 326 327 327 326 326 326 326 324 324 323 323 322 321 321 320 318 316 314 312 309 308 308 308 308 308 308 308 308 308 308 307 307 308 309 309 309 309 310 310 311 312 314 315 315 315 315 315 314 314 314 314 314
322 321 322 323 324 323 324 325 325 326 326 326 325 325 324 324 324 323 323 323 323 323 323 323 324 324 324 324 325 326 326 326 326 326 326 326 326 325 325 324 323 323 322 322 321 321 321 321 320 318 315 311 308 309 309 309 309 308 308 308 308 308 308 308 309 309 309 309 310 310 311 314 314 315 316 316 316 316 316 316 316 315 315 314 314
319 319 320 320 322 322 322 324 325 325 324 324 323 323 322 322 322 322 322 322 322 322 323 324 324 324 324 324 325 325 324 324 324 325 325 325 324 322 321 319 318 317 318 319 319 319 318 317 316 315 312 310 309 310 311 311 310 310 310 311 311 310 310 311 312 313 313 313 313 312 313 316 316 315 315 315 315 315 315 315 314 314 313 313 312
316 316 316 316 317 318 320 323 324 323 322 322 322 321 321 321 321 321 322 322 322 323 324 324 324 324 323 324 323 322 321 322 323 323 323 322 319 317 316 315 314 313 314 314 314 315 315 313 312 313 313 313 313 314 315 315 314 314 315 315 315 315 315 315 316 316 316 315 315 313 313 314 315 314 314 314 314 314 314 314 313 313 313 313 313
312 312 312 311 311 313 316 319 320 319 320 320 320 320 320 321 321 321 322 322 323 323 323 323 323 323 322 323 321 319 319 320 320 319 319 317 315 314 313 312 312 312 312 312 312 313 314 313 313 314 315 315 315 315 315 315 316 315 315 316 316 316 316 315 315 315 314 314 313 312 312 313 313 312 313 313 312 313 313 312 312 312 313 313 313
308 308 308 308 308 309 312 315 316 317 319 319 319 319 319 320 320 320 321 321 321 321 321 320 321 321 321 321 320 319 317 317 315 314 315 315 313 313 313 312 312 311 309 307 308 309 310 311 311 311 311 311 311 312 311 311 311 311 311 312 313 313 312 312 312 312 312 311 311 311 311 311 311 311 311 311 311 311 310 310 311 312 312 311 311
305 305 306 307 308 309 311 313 315 316 318 318 318 318 318 319 319 319 319 319 318 318 317 317 317 317 317 317 319 318 316 314 313 313 314 315 314 314 314 313 312 309 306 305 305 306 306 307 307 307 308 308 308 308 308 308 308 307 308 309 309 309 309 309 310 310 309 310 310 310 310 310 310 310 310 309 309 309 309 310 311 310 309 309 309
304 305 306 307 308 309 310 311 312 314 315 316 317 318 318 318 318 318 318 317 316 314 314 313 313 313 314 315 316 316 315 314 314 314 314 314 315 315 315 314 311 307 304 304 305 305 306 306 306 306 306 306 306 306 305 305 305 305 305 305 305 305 305 306 307 308 308 310 310 309 308 308 309 308 307 307 308 308 309 309 309 307 306 307 307
Wind_Speed
15 14 15 16 14 14 15 15 15 15 14 14 15 18 17 15 14 13 11 10 9 10 11 10 10 9 8 8 8 7 7 7 7 7 7 6 6 6 7 7 6 6 7 7 6 6 5 5 6 6 6 7 8 8 8 8 9 9 9 11 13 14 15 15 15 15 15 14 14 14 13 13 13 13 13 13 13 13 13 14 15 16 16 16 17
15 14 15 17 16 15 15 15 15 15 15 14 14 16 17 15 13 13 11 9 8 8 9 9 9 9 9 8 8 7 7 7 7 6 6 6 6 7 6 6 6 7 7 6 5 6 6 6 6 5 5 7 8 8 9 10 10 11 12 13 14 15 16 16 16 16 16 16 16 15 15 14 14 13 12 13 13 13 13 14 14 15 15 16 16
14 14 15 16 17 16 15 16 15 15 15 14 13 14 16 15 12 12 11 9 7 7 7 8 9 10 10 9 8 8 7 7 7 6 6 6 6 6 7 6 7 7 6 6 5 6 5 5 5 5 6 8 8 10 10 11 11 12 13 14 14 14 14 13 13 13 13 14 14 14 13 13 13 13 13 12 12 12 13 13 13 14 14 15 16
13 14 14 15 16 16 16 18 17 16 16 14 13 13 14 14 12 11 9 8 7 7 7 8 9 11 11 10 9 9 8 7 7 7 7 7 6 7 8 7 7 6 6 6 5 5 5 4 5 6 7 8 9 10 10 10 11 11 12 11 11 11 10 9 9 10 10 11 11 11 11 11 11 12 13 13 12 11 11 12 13 14 14 14 15
14 14 14 15 16 16 16 18 18 17 16 15 14 13 13 13 11 10 9 8 7 8 10 10 10 11 11 11 10 9 8 8 7 8 8 8 7 8 8 8 7 6 6 6 5 5 6 7 8 8 8 8 9 9 9 9 9 9 9 8 7 7 6 5 5 5 6 8 9 9 9 9 9 11 11 12 12 11 11 11 12 13 13 13 14
14 14 15 15 16 16 15 16 17 17 16 16 15 14 14 12 11 10 8 8 8 11 13 12 12 12 12 12 11 10 9 8 8 8 9 8 8 8 8 8 7 7 7 7 7 6 7 8 8 7 7 8 7 7 7 7 7 7 6 6 5 4 4 4 3 3 4 5 6 7 8 8 8 9 10 11 11 11 11 11 11 11 11 12 14
15 15 16 16 17 17 15 15 16 17 16 15 14 14 13 11 10 10 10 8 9 13 15 14 13 13 13 13 12 12 10 9 9 9 9 9 9 8 8 8 8 8 8 8 8 7 7 7 7 6 6 6 5 5 4 5 5 5 5 5 4 3 4 4 4 4 3 3 3 4 6 7 7 7 9 10 10 10 11 10 11 11 11 12 14
16 17 17 17 17 17 16 15 16 16 15 14 14 14 12 11 10 11 12 10 11 14 15 15 14 13 13 13 13 13 11 10 10 11 10 10 9 8 9 10 9 9 8 8 7 6 6 6 6 6 4 4 4 3 2 3 3 3 3 3 3 4 4 5 5 4 3 3 2 3 3 4 5 6 7 8 8 8 9 10 10 11 12 14 15
18 18 18 18 18 18 17 16 15 15 15 15 14 13 12 12 12 13 13 12 13 15 16 15 14 13 13 14 14 13 13 13 11 12 12 11 9 8 10 11 10 8 8 7 6 5 5 5 5 5 4 4 3 3 2 1 1 1 1 2 3 4 5 5 4 4 4 4 3 2 2 2 4 6 6 7 7 8 8 9 10 11 13 16 18
20 20 19 19 19 19 18 16 16 16 16 16 15 14 13 13 15 15 13 13 14 16 16 15 14 13 13 13 14 14 14 14 13 13 13 11 9 8 10 11 9 8 8 7 5 5 4 5 5 5 5 5 4 4 3 3 2 1 1 1 3 5 5 4 3 3 4 4 3 3 3 3 4 6 6 7 7 7 7 7 9 12 15 16 15
21 21 20 20 20 19 18 17 17 17 17 17 17 17 15 16 16 16 15 13 14 16 15 15 13 11 11 11 12 13 12 13 14 14 14 11 9 9 10 11 10 9 9 7 5 5 4 4 4 4 5 6 6 5 5 5 3 2 0 2 4 5 4 2 1 1 1 1 2 3 3 4 5 6 6 6 7 6 7 8 10 14 14 12 11
22 22 22 21 21 19 18 18 18 18 19 19 20 19 17 18 18 17 16 14 13 15 15 15 13 9 8 8 8 10 10 11 13 14 12 10 9 10 11 11 10 9 9 8 6 4 4 4 3 3 3 4 4 4 4 4 3 2 3 5 4 3 2 1 1 0 1 1 0 1 2 3 5 6 6 6 7 7 8 11 13 13 12 10 10
24 24 24 23 21 19 19 19 20 20 19 20 20 19 18 19 18 17 17 15 13 13 15 16 13 10 8 7 7 7 8 9 10 11 11 10 10 11 13 12 11 10 9 8 6 4 4 3 3 3 3 3 3 2 1 2 4 5 6 6 5 2 2 2 1 2 2 2 2 2 3 5 5 7 7 7 7 8 10 12 13 12 11 10 10
26 26 26 25 22 20 19 20 21 21 20 20 20 20 20 21 20 18 16 15 14 15 17 16 11 11 10 8 6 5 6 6 7 8 9 10 10 9 10 12 11 10 10 8 6 4 4 4 3 3 3 3 3 2 3 6 7 8 7 6 4 2 2 3 3 5 6 5 4 4 5 7 8 8 8 8 8 10 10 10 11 10 9 9 8
27 27 28 27 24 21 20 21 22 22 22 22 21 21 21 21 21 19 16 14 14 16 19 16 13 14 11 6 4 3 4 3 4 6 7 8 8 6 6 9 9 10 10 8 6 4 3 3 3 3 3 4 4 5 6 8 9 8 7 4 3 2 2 4 6 8 7 6 6 6 8 10 10 10 10 9 10 10 9 9 9 9 7 7 6
27 27 28 29 26 23 21 22 23 23 23 23 22 21 21 21 21 21 18 16 15 17 20 17 16 17 9 3 2 2 1 3 4 3 3 4 5 6 6 7 8 9 9 8 6 5 3 3 2 2 4 5 6 6 7 8 7 6 4 3 3 4 4 6 9 9 7 7 8 9 11 12 12 11 10 10 10 9 8 7 7 6 4 4 3
28 28 28 30 28 25 23 23 23 24 24 22 21 21 21 22 22 22 21 19 17 19 20 17 17 18 11 5 4 1 2 4 5 3 2 4 4 4 6 6 7 8 9 8 6 5 4 2 2 3 4 5 6 6 6 5 4 3 2 3 4 4 4 8 11 9 7 7 9 10 12 12 12 11 10 10 9 8 6 4 3 2 2 2 3
28 28 28 29 29 27 25 25 25 25 25 23 21 21 22 23 23 22 22 22 20 20 21 19 19 18 12 8 5 2 5 8 5 1 3 5 4 5 5 6 8 8 8 8 8 7 5 2 2 4 6 5 6 5 4 3 1 2 2 3 3 3 5 9 12 9 7 7 8 10 11 11 11 10 9 9 7 6 4 2 1 2 2 3 4
27 28 27 28 28 27 26 26 26 26 26 24 22 21 22 23 23 23 22 23 22 22 22 21 21 18 13 10 5 4 10 12 6 4 4 4 5 7 7 6 8 9 8 8 8 8 6 3 2 4 6 6 5 4 3 1 1 2 2 3 3 3 5 9 12 10 7 7 7 7 9 9 9 8 8 7 5 5 3 2 2 3 4 4 5
27 26 27 27 27 26 26 26 27 28 27 25 24 22 23 23 23 23 23 24 24 23 23 23 24 21 16 12 5 5 12 12 10 8 5 3 5 6 7 7 8 8 7 8 9 9 7 4 3 5 6 6 5 3 2 1 1 1 2 3 2 2 4 9 13 12 10 8 6 6 7 7 7 7 6 4 3 4 3 2 3 4 4 4 5
26 25 27 27 26 25 25 26 26 27 27 27 26 24 24 24 24 24 25 26 25 23 24 26 26 24 21 15 7 9 12 9 10 11 6 5 5 5 7 7 7 8 9 8 8 8 7 5 4 5 6 5 4 3 2 2 1 2 3 3 2 2 4 8 12 14 12 10 8 7 6 6 6 5 4 1 2 3 2 3 3 4 4 4 5
24 24 25 25 24 24 25 26 26 27 27 28 27 26 25 25 25 25 25 26 26 25 24 24 26 25 23 19 13 14 12 7 10 11 6 4 4 6 10 9 7 8 9 9 8 9 8 7 6 6 6 6 4 3 2 2 2 3 3 3 3 3 3 7 10 12 12 11 9 8 7 6 5 4 2 1 1 1 2 3 4 4 5 5 5
25 24 24 23 23 24 25 26 27 26 26 27 28 28 26 25 25 26 25 26 26 25 24 22 23 23 23 22 19 17 14 10 14 16 10 6 5 7 11 11 8 8 9 10 9 9 9 9 8 7 7 7 5 4 2 2 3 4 4 3 3 3 2 4 7 9 9 9 9 9 7 6 5 4 2 2 1 2 3 4 5 5 5 5 6
24 25 25 24 24 25 25 27 28 27 25 26 27 28 27 26 27 26 25 26 26 25 24 22 21 22 22 22 21 19 16 12 14 18 16 13 11 8 10 11 8 7 10 10 8 8 9 10 9 8 8 7 6 5 3 3 4 5 4 4 3 3 2 2 4 7 8 8 9 9 9 7 6 4 3 2 2 3 4 5 4 4 5 5 5
23 26 26 25 25 25 26 27 26 25 24 24 26 27 27 27 28 28 25 26 26 25 24 23 21 20 20 22 21 19 16 13 12 15 17 15 13 10 9 11 8 6 8 10 10 8 9 10 10 9 9 8 7 7 5 4 5 5 5 4 4 3 3 3 3 5 7 8 9 9 8 7 5 4 3 3 4 5 5 4 4 4 4 5 5
24 25 27 27 26 26 26 25 22 21 22 22 24 27 27 27 28 28 25 24 24 24 24 23 21 19 19 21 21 20 17 14 13 14 16 16 15 14 12 8 6 7 7 9 11 9 10 12 12 10 10 10 9 8 7 6 6 6 6 5 5 5 4 4 4 5 6 7 7 8 7 7 7 6 5 5 5 5 4 4 4 4 4 5 5
24 23 25 27 27 25 25 24 22 22 23 23 25 27 27 26 26 25 24 22 22 24 23 22 21 20 19 19 19 19 18 15 15 14 16 18 17 18 17 9 4 4 4 7 10 11 11 12 13 13 12 11 11 10 8 8 8 7 7 7 7 6 5 4 4 5 5 6 6 7 7 7 8 7 6 5 4 4 4 4 4 4 4 4 4
24 24 24 24 22 23 24 24 23 24 25 24 24 26 27 26 25 24 24 22 22 23 22 21 21 19 19 18 18 19 18 16 15 14 15 17 17 18 20 16 9 4 2 4 6 10 13 13 13 14 14 13 11 11 9 9 9 9 8 8 7 6 5 5 5 5 5 5 5 5 6 6 7 7 6 5 5 4 4 4 4 4 4 3 3
23 25 25 23 21 22 24 22 22 24 25 24 24 24 24 24 24 24 24 23 22 22 21 20 20 18 18 18 18 19 18 17 16 14 14 16 17 18 19 20 16 9 4 4 5 9 14 15 15 14 15 15 13 11 11 10 10 10 9 9 8 7 6 6 6 6 5 6 6 6 6 6 7 7 6 6 5 5 5 4 4 3 3 2 2
21 24 25 25 22 23 25 23 23 23 23 24 24 23 22 24 25 25 25 23 21 21 21 20 18 17 17 17 17 18 19 18 17 16 15 15 17 18 18 20 20 15 10 6 5 11 15 16 18 16 14 16 15 13 13 11 10 11 11 10 9 7 7 7 7 7 6 7 7 7 8 8 7 7 7 6 6 6 5 4 4 3 2 1 1
21 23 25 24 22 24 26 25 24 22 23 25 24 22 24 25 25 26 25 23 21 21 20 19 17 16 15 16 17 17 18 17 16 16 16 15 16 17 18 20 21 19 16 10 3 8 16 17 19 19 15 14 15 15 14 13 12 12 12 11 10 8 8 8 8 8 8 8 8 8 8 8 8 7 7 7 6 6 5 4 3 2 2 1 1
21 22 23 23 23 23 24 24 23 22 23 25 24 24 25 24 24 27 26 22 21 20 19 18 17 15 15 15 16 16 16 16 15 15 16 15 15 17 17 19 21 19 17 12 4 4 12 16 16 17 17 15 14 16 16 14 13 13 13 12 11 10 10 10 10 9 9 9 9 9 9 8 8 7 7 6 6 6 5 5 4 4 3 3 4
20 20 21 23 22 22 22 22 21 21 23 25 24 25 25 22 23 27 26 23 21 20 18 18 17 15 15 15 16 16 16 16 15 15 15 15 15 16 17 18 21 20 17 14 8 4 8 12 13 15 17 16 15 15 16 16 14 14 15 14 14 12 11 11 12 11 10 10 10 10 9 9 8 8 7 7 7 7 6 6 6 6 7 7 7
20 20 21 22 21 20 21 21 21 21 23 25 26 27 24 20 22 26 24 20 19 18 18 18 17 16 15 15 16 16 16 15 15 15 14 14 14 16 17 18 20 22 20 16 12 8 8 11 13 14 16 16 16 15 16 17 16 15 15 16 15 14 13 13 13 13 12 11 11 11 11 10 9 9 9 8 8 9 9 9 10 10 11 11 11
22 21 22 22 21 21 21 22 24 23 23 24 26 25 23 20 22 24 20 17 17 17 18 18 17 16 16 15 15 15 15 16 15 15 14 14 15 16 17 18 20 22 22 20 17 13 10 10 12 14 15 16 16 15 15 16 16 15 15 16 16 15 14 14 15 15 14 14 13 13 13 12 12 12 12 12 11 12 12 13 13 14 15 15 15
24 22 22 22 21 22 23 24 25 25 23 22 23 23 21 20 22 23 19 17 17 17 17 17 17 16 16 15 15 15 15 16 16 16 15 15 15 16 16 18 20 21 22 23 20 16 12 11 11 13 15 15 15 15 15 15 17 17 16 16 17 17 16 16 17 17 17 17 16 16 16 16 16 15 15 15 15 15 15 16 17 18 19 19 19
25 23 23 23 22 23 25 26 26 25 22 22 22 20 19 20 23 22 18 17 17 17 17 16 16 16 15 15 15 14 15 16 16 16 16 16 15 16 16 17 19 21 23 23 21 18 15 13 12 12 13 14 14 15 16 17 18 18 18 18 18 19 19 19 19 19 19 19 19 19 19 19 19 19 19 19 19 19 19 20 21 22 23 23 23
26 25 26 26 24 25 26 26 26 24 22 22 22 19 18 22 22 19 17 17 17 17 16 15 15 15 15 14 14 14 14 15 16 16 16 17 16 16 17 17 18 20 22 22 21 20 18 16 13 12 13 14 15 16 17 18 18 19 19 19 20 20 21 21 21 21 21 21 22 22 22 22 22 22 22 22 23 23 23 25 25 26 27 27 27
27 27 28 27 27 27 27 26 25 23 22 22 20 18 21 23 21 18 18 17 16 16 16 14 13 13 14 13 13 13 14 14 16 17 17 17 17 17 17 17 17 19 22 22 21 20 19 16 14 12 13 13 15 16 16 17 17 18 18 19 20 21 22 22 23 22 21 22 23 24 25 25 26 26 27 27 27 27 28 28 29 30 30 31 31
28 28 28 28 28 28 27 26 24 23 22 21 19 20 23 22 19 18 18 17 16 16 15 13 12 12 13 13 13 12 12 13 15 17 17 17 17 16 16 16 17 19 22 22 21 19 19 16 14 13 13 13 15 15 14 14 17 19 21 20 21 21 21 22 23 22 22 23 23 24 25 26 27 27 28 29 29 30 30 30 31 31 32 32 33
30 28 27 28 28 27 26 25 25 23 21 19 19 22 22 19 19 19 17 16 15 15 15 14 13 13 13 13 12 11 11 12 13 14 14 14 14 14 15 16 17 19 21 21 20 19 17 14 12 11 12 13 15 16 16 17 20 21 21 20 21 21 21 21 22 22 23 23 24 24 25 25 26 27 27 28 29 29 30 31 31 32 32 33 34
30 29 29 30 29 28 27 26 25 23 21 21 21 21 19 18 18 18 16 15 15 14 14 14 13 13 12 12 11 10 9 9 10 10 10 9 9 10 12 14 17 18 20 21 21 19 18 16 14 13 13 15 17 19 20 20 21 19 18 18 21 21 18 18 20 20 20 21 23 24 24 23 22 23 24 25 25 25 26 27 27 27 28 28 29
29 29 31 32 29 28 28 26 25 23 22 21 21 19 18 18 18 17 16 15 15 15 15 15 13 12 12 11 9 8 7 7 7 7 8 8 8 9 10 12 15 15 17 21 22 20 19 17 14 14 16 17 18 19 20 19 18 18 17 17 17 17 15 13 14 15 14 14 15 18 20 19 17 18 20 21 21 21 21 21 21 21 21 21 21
27 27 29 30 29 28 27 25 24 23 22 20 19 18 17 18 18 16 15 15 16 16 16 14 14 13 12 10 9 7 7 7 8 8 9 9 9 10 11 13 13 12 14 18 21 20 18 15 13 15 17 17 17 17 17 17 17 16 15 15 15 15 14 14 15 15 12 10 11 14 19 20 17 17 19 19 17 17 17 18 18 18 18 17 17
25 26 27 28 28 26 25 25 24 23 21 20 19 18 18 18 18 17 16 16 17 16 15 15 15 14 13 10 9 8 7 7 8 9 10 11 11 11 11 11 11 10 11 16 18 17 16 15 15 16 16 15 15 13 12 14 15 14 14 15 15 15 15 17 18 17 13 11 11 13 17 18 16 15 16 16 15 14 15 16 16 17 17 18 19
23 23 24 24 25 25 25 26 25 23 21 21 20 19 18 17 17 17 17 18 17 16 15 16 15 14 12 10 9 8 8 8 9 11 12 13 13 12 10 9 8 7 8 10 12 12 13 12 12 12 10 9 9 7 6 8 9 9 10 10 11 12 13 13 13 11 9 9 9 9 12 13 13 13 15 16 15 14 14 14 16 17 19 20 21
21 20 20 21 22 25 26 26 25 24 23 23 22 20 19 18 17 17 18 18 18 17 16 15 14 13 12 11 10 10 10 10 10 12 14 15 15 16 16 16 16 15 14 11 9 8 8 9 9 9 10 9 7 7 7 6 4 4 3 3 4 5 5 5 6 6 6 6 6 6 9 11 12 14 16 15 15 14 14 15 17 19 19 20 19
19 18 18 18 18 21 25 25 25 26 24 23 22 21 19 19 18 17 18 19 18 18 16 15 14 13 12 11 12 12 12 13 14 15 16 18 20 21 22 21 19 18 18 17 15 14 14 15 15 14 13 12 10 9 8 6 4 3 3 2 3 3 3 5 6 6 6 6 6 6 9 11 12 14 15 15 15 16 16 17 18 17 16 15 16
19 18 17 17 16 18 22 24 24 25 24 21 20 20 19 19 18 18 19 18 18 18 17 16 15 14 13 12 13 14 15 16 17 17 18 19 20 21 20 18 16 16 18 18 16 15 16 15 15 14 13 12 9 8 7 5 4 3 2 2 1 2 3 3 4 5 5 5 5 6 7 9 10 12 14 16 16 17 16 15 13 12 13 15 16
22 21 19 18 17 17 19 21 22 24 24 20 18 18 17 16 16 18 19 19 19 19 19 18 17 16 15 13 13 16 18 18 18 18 16 15 14 14 14 15 16 17 18 16 15 16 15 14 15 14 13 12 10 8 7 6 5 4 3 3 2 2 1 1 2 4 6 5 4 5 7 9 10 12 15 16 14 12 10 8 8 11 14 16 18
25 24 22 21 20 18 17 18 19 21 22 20 18 17 17 16 15 17 19 20 21 22 21 21 20 19 18 17 16 17 19 19 19 18 15 12 12 12 13 15 17 19 18 16 16 17 16 15 15 14 13 12 10 9 9 8 7 6 6 6 6 5 4 4 2 3 4 3 3 7 9 9 9 10 12 12 9 7 5 6 11 15 17 18 19
Wind_Direction
192 189 193 193 186 181 178 177 173 172 172 169 169 170 169 163 151 144 143 141 137 139 141 143 150 152 150 147 144 138 136 141 142 141 145 149 149 139 131 139 141 125 119 117 115 116 114 109 108 113 118 116 111 107 106 103 100 98 95 94 94 93 92 90 89 86 83 83 83 83 81 81 85 86 82 78 77 74 70 69 71 73 73 72 70
200 194 196 196 189 184 182 182 181 179 178 174 170 172 175 172 158 150 150 148 144 147 148 148 155 163 164 159 152 147 145 148 155 158 154 152 150 142 145 154 138 119 119 119 114 116 119 123 124 126 120 107 102 100 100 99 97 97 97 95 92 91 90 88 86 83 81 80 79 80 79 78 80 83 84 83 80 78 75 72 71 72 72 73 72
208 203 200 198 193 188 189 189 187 185 183 179 175 174 178 178 165 158 158 156 151 155 161 159 163 172 176 170 164 160 156 157 164 168 163 158 158 154 151 143 126 121 126 129 127 129 131 136 138 135 120 108 102 99 97 96 96 97 95 91 89 86 83 83 84 83 81 81 80 79 79 79 79 79 82 84 84 84 81 76 74 73 71 72 74
211 209 206 202 197 194 195 192 190 189 186 185 186 181 182 182 173 166 168 169 166 168 175 175 174 180 183 180 177 173 166 166 171 172 170 167 162 158 150 137 131 136 138 135 137 140 141 140 132 119 110 109 105 100 100 98 94 93 90 86 84 79 76 77 78 80 81 81 81 82 82 84 84 82 82 81 81 84 84 82 80 79 75 72 72
213 213 212 207 201 198 197 194 191 189 188 190 192 192 190 188 183 179 181 185 189 185 182 183 186 188 189 189 186 182 176 172 176 177 175 172 165 161 153 146 145 147 143 141 140 135 130 124 116 109 109 112 109 106 106 101 90 84 84 80 74 72 74 72 66 70 76 76 77 81 82 81 83 84 84 83 79 79 81 85 86 82 78 75 74
215 216 215 210 205 200 196 192 191 189 189 192 194 198 199 196 193 189 191 195 198 191 185 186 190 191 191 194 194 190 184 177 179 179 174 171 168 165 157 151 147 142 142 143 139 128 122 118 115 119 125 122 117 116 112 103 90 81 79 73 61 50 51 52 47 51 63 72 76 81 82 79 80 82 83 81 77 77 77 79 82 80 77 78 78
218 219 218 214 206 199 193 187 185 186 188 190 192 197 201 201 197 192 192 192 190 184 184 189 191 192 193 195 198 195 187 182 183 179 172 172 173 168 157 150 144 139 138 138 136 132 128 130 134 139 137 126 123 124 111 98 88 76 68 60 42 25 39 52 48 47 58 80 82 84 86 81 81 79 74 71 69 74 77 77 80 79 76 78 77
220 220 221 218 208 199 192 184 182 184 188 192 194 196 199 200 198 197 193 185 181 179 183 190 189 191 194 195 199 197 189 186 186 180 175 178 180 172 160 156 152 147 145 142 141 142 143 148 151 153 150 138 133 135 120 104 89 68 53 40 37 44 64 66 51 52 67 80 89 96 93 82 89 86 76 69 63 64 70 78 83 79 77 78 77
221 220 222 219 210 200 194 190 188 189 194 197 200 201 202 201 195 195 197 190 182 177 179 186 190 191 192 196 199 197 193 191 189 183 181 184 185 179 169 166 163 160 159 156 155 158 166 173 172 176 177 170 172 176 178 184 113 54 337 6 56 73 81 73 57 68 83 84 84 94 96 106 115 102 86 79 69 59 59 74 85 83 83 82 80
223 221 222 218 211 204 202 199 197 199 201 202 205 205 204 203 194 189 196 198 190 183 180 181 185 188 189 194 197 198 197 192 190 187 187 189 188 182 178 175 173 171 170 169 173 183 195 198 197 205 205 205 212 211 226 244 256 274 302 30 86 94 88 71 56 83 99 99 94 93 92 103 130 119 99 90 77 61 57 70 86 90 89 86 83
225 222 222 217 211 209 209 206 205 206 203 203 206 207 203 199 196 191 190 197 198 189 181 175 172 174 181 186 194 201 198 189 191 194 193 194 193 188 184 182 180 179 180 182 186 194 207 215 210 216 217 220 227 228 238 247 252 262 26 94 110 108 89 38 13 118 139 121 111 116 100 94 121 131 118 100 82 63 61 74 89 94 91 82 76
227 224 222 218 212 213 215 211 209 208 204 205 206 206 203 196 196 194 186 185 189 186 180 173 160 152 165 171 185 201 200 194 196 199 200 202 205 200 191 191 193 191 189 190 192 195 208 223 218 217 218 218 223 229 243 249 229 180 132 124 120 109 75 36 41 182 257 268 157 136 123 108 116 129 126 105 89 78 79 87 93 93 84 73 69
227 225 223 221 216 216 218 213 209 208 207 208 206 204 202 197 196 194 190 181 173 177 180 170 150 140 148 146 156 181 194 202 205 208 209 207 218 214 198 199 202 198 197 193 195 202 215 228 220 212 213 205 199 209 216 160 150 136 121 117 109 83 51 71 75 64 64 60 61 76 122 135 124 127 125 103 93 94 95 94 91 86 78 73 73
224 224 223 222 219 218 218 212 209 208 209 208 204 201 198 198 195 190 191 184 174 176 176 166 149 146 146 132 135 151 162 186 205 215 214 209 226 231 207 204 201 197 201 196 198 208 216 226 214 200 198 179 159 146 124 126 129 121 116 114 107 86 64 79 72 70 67 61 73 83 112 132 130 129 126 109 102 102 98 93 87 86 81 77 75
221 223 223 222 221 220 218 215 211 209 208 205 201 202 201 200 199 194 187 173 170 179 178 172 159 148 141 134 150 144 135 168 199 212 216 211 226 238 214 205 196 194 200 196 202 212 208 214 208 187 173 151 140 135 129 133 132 127 132 140 134 121 95 85 75 71 68 69 88 99 112 126 129 129 126 116 109 104 96 91 87 88 88 84 76
220 223 223 222 221 220 220 218 214 211 210 208 206 209 208 200 199 199 191 171 161 175 183 184 173 158 143 115 131 134 158 179 164 166 204 206 225 235 213 201 192 192 199 200 205 206 197 204 190 161 153 144 145 146 141 140 139 139 153 176 164 140 111 91 80 75 76 84 97 106 113 122 127 127 126 118 112 105 96 91 87 87 91 84 62
222 224 224 224 223 221 221 220 217 214 215 217 216 217 214 205 201 202 200 190 175 175 185 195 192 179 164 140 133 173 210 169 149 135 182 190 218 234 211 208 206 196 198 207 210 200 189 192 166 149 148 149 151 151 148 141 142 163 186 190 173 144 112 94 89 89 92 97 103 110 115 120 124 124 121 117 111 103 97 93 93 87 73 56 46
224 225 226 227 225 223 221 220 219 218 219 223 222 218 214 209 207 207 206 205 191 180 187 199 201 194 184 174 167 179 167 155 155 158 166 182 206 213 203 211 211 198 199 214 218 205 192 186 161 148 149 155 159 157 155 154 181 229 219 189 167 129 109 99 97 98 100 102 106 112 119 121 123 120 118 118 103 84 81 82 86 74 65 65 67
223 225 227 227 227 225 222 221 220 221 222 223 222 218 214 212 212 211 210 207 195 185 188 193 197 201 199 184 158 145 163 160 163 155 149 174 184 187 194 201 201 197 206 219 216 206 197 191 176 157 155 160 167 172 176 199 238 239 212 180 154 123 114 110 109 109 106 107 108 115 122 121 120 121 124 123 89 50 39 38 58 70 72 73 72
221 223 225 225 226 225 223 222 221 222 223 223 221 219 217 216 215 213 211 208 202 195 192 190 194 200 198 187 164 159 174 176 176 161 141 161 167 177 189 193 202 206 210 213 209 208 207 203 186 169 168 169 174 190 205 225 257 233 193 172 155 144 132 123 123 125 120 113 112 116 126 128 131 137 137 124 55 22 19 40 66 73 74 72 72
221 223 223 223 224 225 224 223 223 222 222 222 221 221 219 218 217 214 212 211 209 205 199 196 198 200 196 194 182 166 172 177 177 162 138 155 169 180 178 177 200 212 212 209 206 211 215 215 202 184 183 183 189 210 231 241 244 208 188 183 184 180 153 136 134 138 138 135 131 127 132 141 147 152 149 113 5 5 33 66 74 73 73 74 75
222 225 226 225 225 226 226 224 224 224 223 222 221 221 220 220 220 217 214 215 213 209 207 206 206 204 199 196 181 164 162 158 171 168 147 151 173 184 179 176 186 195 205 210 208 211 215 219 214 199 197 200 210 228 245 249 226 196 197 201 204 199 165 146 145 150 152 152 149 144 143 150 156 159 175 276 326 32 83 86 82 80 77 78 79
223 227 228 229 228 227 227 226 225 224 224 223 222 222 221 220 220 219 217 218 217 212 211 213 213 209 205 203 196 186 183 179 181 178 169 161 162 175 182 183 183 181 193 205 210 214 216 218 217 211 208 209 219 234 242 238 213 199 207 208 196 199 185 157 157 164 164 155 149 146 146 151 156 162 202 256 225 131 110 98 91 87 82 78 78
225 228 226 225 226 227 227 227 226 226 225 224 223 224 223 220 219 221 221 220 220 217 214 215 216 213 209 210 210 209 208 205 196 191 190 184 171 167 176 178 180 186 190 197 206 215 217 217 216 215 214 216 225 232 237 231 212 207 209 202 195 204 213 198 175 178 180 172 163 158 159 164 167 172 202 219 169 130 118 110 105 104 97 92 89
223 226 226 223 222 225 228 229 227 226 226 224 225 226 224 221 220 221 220 219 221 220 218 219 221 221 218 214 214 217 218 223 218 205 199 191 174 160 166 172 172 173 185 194 197 205 214 218 218 217 218 222 228 233 235 228 214 215 216 205 203 211 216 216 203 192 192 188 181 174 172 173 171 174 182 171 149 137 130 122 120 124 123 121 117
229 225 226 223 221 221 225 231 231 229 230 227 226 228 227 223 223 222 218 219 222 221 220 222 224 225 224 220 219 222 222 228 230 214 201 195 182 163 155 161 168 160 171 196 198 197 206 214 218 219 220 225 231 236 236 229 222 222 223 214 207 209 208 207 210 208 201 192 183 177 172 164 160 167 169 158 152 151 142 133 133 136 135 131 126
246 235 230 226 223 221 222 228 233 235 236 233 228 229 229 226 226 226 222 219 220 221 220 221 224 225 226 225 226 226 223 227 231 224 212 208 200 181 165 151 153 162 163 193 206 210 209 212 217 218 220 225 231 238 239 233 229 226 225 222 213 210 208 204 207 211 207 199 190 185 180 170 170 177 178 171 170 168 158 154 148 141 137 132 125
257 249 242 233 228 227 227 226 229 234 237 234 230 229 228 227 226 226 223 218 218 220 219 220 224 227 229 229 229 226 225 227 230 229 220 216 213 199 182 168 158 155 171 195 213 220 216 215 218 220 222 224 229 237 240 238 233 228 225 223 218 216 214 208 206 207 206 204 200 197 193 186 183 186 189 192 194 189 181 174 161 151 146 140 132
259 255 249 239 232 234 233 227 226 231 234 231 228 227 228 230 228 224 220 219 219 219 219 221 224 228 230 230 229 227 226 228 230 229 221 217 216 211 204 193 180 164 165 201 216 215 213 216 219 221 222 222 225 232 237 240 235 228 225 222 220 220 218 213 207 203 202 203 204 203 201 196 191 191 197 201 202 202 197 188 177 167 158 144 133
252 252 247 239 232 232 232 229 225 227 232 233 230 227 228 232 231 226 220 218 219 219 219 222 223 224 226 227 227 226 226 227 229 227 220 220 220 217 218 212 199 186 177 179 215 215 209 213 218 220 221 220 221 225 231 236 233 227 224 222 220 221 219 215 210 204 201 202 205 205 202 198 195 194 198 202 203 205 203 199 191 179 168 161 148
244 244 244 238 229 229 231 230 227 224 228 233 230 224 225 228 229 228 223 217 218 218 218 219 220 218 220 221 221 222 223 224 225 225 221 222 225 221 220 217 211 207 197 180 186 217 209 212 217 218 220 221 221 223 225 230 230 224 223 223 221 222 220 215 213 209 204 205 206 206 203 200 198 197 197 201 204 208 209 209 207 204 208 219 246
245 243 244 239 231 231 233 233 231 229 229 230 226 221 221 223 226 228 224 218 218 217 216 217 217 216 217 219 219 218 218 218 218 220 221 223 226 223 222 220 216 216 211 195 169 189 206 213 217 218 220 221 222 224 224 227 229 223 221 222 221 223 222 217 215 213 208 208 207 206 204 201 199 198 198 202 207 214 219 224 229 237 247 256 263
249 245 243 240 234 232 232 233 235 234 232 230 225 221 218 217 224 226 221 214 215 214 214 216 214 215 218 217 218 218 217 217 216 216 219 222 222 220 220 221 219 218 215 207 195 172 195 208 212 216 221 221 221 223 223 225 228 225 221 219 219 223 225 221 220 218 214 214 212 210 209 207 206 206 207 212 220 227 236 245 253 260 264 266 267
249 244 241 236 231 227 226 230 232 230 230 230 226 220 216 215 222 225 217 209 211 211 211 215 214 214 216 215 217 218 216 216 214 214 218 218 216 215 216 220 222 220 217 213 209 197 194 204 209 214 219 221 222 224 223 224 228 229 226 223 223 224 225 225 225 224 223 223 222 221 220 218 220 222 224 230 235 241 249 258 264 267 270 270 270
247 242 236 230 225 222 221 225 226 222 223 227 223 216 213 213 218 221 215 207 210 211 210 214 215 213 213 213 215 216 215 215 214 215 220 219 216 214 213 218 222 220 218 218 217 211 205 205 212 217 218 221 224 226 226 226 228 231 232 231 231 231 231 230 229 228 229 231 232 233 234 234 235 236 239 242 245 249 256 263 267 269 271 273 274
245 238 231 224 222 220 218 219 219 215 214 218 219 214 210 212 217 217 211 206 209 210 210 213 214 213 211 210 212 215 215 215 216 217 219 220 217 212 211 217 220 219 219 221 221 219 217 213 214 221 223 225 228 229 228 227 227 230 232 233 234 236 237 236 234 233 232 234 238 239 241 243 244 246 248 249 252 255 260 264 267 270 272 273 274
243 236 226 220 218 218 216 215 214 210 206 210 217 215 210 213 217 214 207 204 207 209 211 214 216 214 212 212 213 215 216 215 216 219 219 218 217 211 211 216 218 218 219 221 222 223 224 221 216 218 224 225 227 230 229 227 227 228 230 232 234 237 240 240 240 239 237 238 241 243 245 247 249 251 253 255 257 260 263 267 269 271 273 273 274
239 233 223 216 215 215 214 212 211 207 204 210 216 215 213 215 214 208 205 205 207 208 211 215 217 215 213 215 218 219 220 220 220 221 219 217 216 212 213 217 218 218 216 217 220 221 223 227 225 223 227 227 227 229 230 228 228 228 230 232 235 237 240 243 244 244 243 244 245 247 249 251 254 256 258 260 262 264 267 269 271 272 274 275 276
235 229 219 213 214 214 211 208 206 203 204 211 215 213 214 216 211 205 204 206 206 207 209 212 213 214 215 217 222 226 227 227 226 225 222 220 219 216 215 217 217 217 215 214 217 218 221 225 228 228 231 229 228 230 231 228 226 230 233 234 237 238 240 244 247 247 248 249 251 253 255 257 259 261 263 264 265 267 268 270 272 274 276 277 279
230 223 214 210 210 209 207 204 201 201 204 210 214 212 212 214 211 206 205 206 206 205 208 212 213 216 219 222 227 230 231 232 233 231 226 224 223 218 216 216 216 216 214 212 213 216 218 221 225 229 230 227 223 223 224 219 219 226 229 230 237 242 242 246 251 253 254 255 257 259 260 262 264 266 268 269 270 270 271 273 274 276 277 279 280
223 215 208 206 204 202 201 200 199 200 201 205 210 212 210 210 211 207 203 204 205 205 208 213 215 216 219 224 230 233 234 235 235 235 233 231 227 224 220 215 214 215 214 210 210 211 211 215 224 227 224 222 217 213 213 216 220 226 228 228 236 245 248 251 255 257 258 260 262 265 266 267 269 272 274 275 277 278 278 278 278 279 280 281 281
215 206 202 201 200 197 195 194 195 197 198 201 207 209 207 207 208 204 201 202 201 201 206 209 210 212 216 222 228 231 231 230 227 229 228 221 216 223 229 224 219 218 214 210 208 207 206 211 220 220 215 219 220 217 219 223 226 229 228 228 235 243 250 256 261 261 260 263 266 270 273 275 276 278 279 281 284 286 286 286 287 288 288 288 287
208 199 196 195 193 193 191 189 190 192 194 199 203 204 204 205 203 201 201 200 198 200 205 208 205 203 205 209 215 220 220 213 209 210 205 195 197 211 223 226 224 224 222 213 207 206 204 205 213 219 222 229 232 226 224 227 228 229 231 233 237 243 246 253 264 268 267 268 269 273 279 282 283 285 287 287 291 294 295 296 297 297 296 295 294
201 194 191 188 186 188 188 186 185 187 191 195 197 198 199 199 199 200 197 193 193 198 203 203 197 191 190 193 197 202 202 198 200 203 196 188 193 205 213 218 220 226 226 214 204 204 203 203 217 232 235 237 237 232 229 230 232 233 234 236 240 244 248 250 257 265 271 274 273 275 282 286 290 293 292 293 299 303 302 302 302 301 300 301 301
191 187 185 181 180 182 183 182 180 181 187 190 190 193 193 190 191 193 191 188 189 192 193 190 184 181 182 185 185 184 189 198 203 203 195 186 188 199 207 211 214 218 219 211 209 214 218 219 232 240 238 234 234 236 235 235 236 235 235 240 245 248 252 256 263 271 277 278 276 276 282 288 293 295 294 298 305 306 303 301 301 299 299 301 301
178 177 175 173 174 176 177 176 174 175 181 183 183 184 182 179 182 186 187 186 184 182 180 179 177 177 177 176 172 170 174 183 190 190 185 180 177 177 171 162 157 155 172 191 204 217 222 221 227 228 219 213 217 217 209 212 223 231 236 244 248 247 250 258 270 280 284 286 282 272 276 289 296 292 293 299 303 302 299 297 295 295 296 297 298
161 162 161 162 166 168 169 170 170 171 174 176 176 176 174 172 176 180 180 176 172 170 168 169 172 170 168 166 163 160 156 155 164 170 170 164 155 146 137 129 125 121 118 120 126 141 156 161 163 162 152 146 147 142 139 148 164 186 208 223 231 236 246 262 279 289 292 298 294 269 269 287 296 293 295 301 303 299 296 295 297 298 299 300 301
143 146 147 150 155 155 157 162 164 163 164 168 170 172 173 172 173 172 170 165 161 159 158 160 163 163 163 164 163 158 150 145 148 154 155 152 145 138 130 123 117 114 108 103 103 107 115 123 127 127 125 124 123 120 119 125 132 141 166 190 207 223 245 270 282 285 287 294 295 280 272 284 295 299 301 304 304 302 301 302 304 307 309 312 314
124 126 129 135 137 136 142 152 156 153 152 157 163 167 170 173 172 169 164 160 155 152 151 152 155 155 156 160 163 162 155 148 148 151 153 151 144 137 131 125 120 114 109 108 111 111 111 115 117 118 120 120 121 121 120 123 127 129 155 171 196 244 258 270 272 271 281 294 302 297 286 292 307 313 311 309 307 306 308 310 311 315 320 324 324
107 108 111 117 119 119 126 135 142 142 142 147 154 159 164 171 174 169 164 158 151 148 146 145 146 146 144 146 156 162 159 153 151 154 157 158 152 145 141 136 130 123 119 120 120 116 115 116 115 116 116 114 115 116 111 107 105 99 102 100 76 24 357 356 288 290 306 314 319 323 317 314 318 323 323 320 316 317 320 319 319 320 318 319 321
98 100 101 101 101 103 108 115 124 129 132 138 147 154 158 166 172 170 166 158 148 144 143 141 138 136 135 135 141 150 153 151 151 154 161 169 167 161 158 149 136 128 127 130 129 126 126 123 119 116 112 107 106 105 99 94 88 79 75 69 56 40 30 22 357 329 329 319 316 327 329 324 325 335 340 335 328 328 330 316 312 314 314 315 318